Starlink 30708

operational
NORAD ID: 57944 Int'l Des: 2023-148 Owner: SPXS Country: US Constellation: starlink
LEOCIRCULAR

Starlink 30708について

説明を読み込み中...

リアルタイム位置

3D地球を読み込み中...

次回通過

高度履歴

Altitude vs Time

uPlot chart will show altitude changes over time

軌道要素

1 57944U 23148K 25257.93378344 .00000995 00000-0 45719-4 0 9992
2 57944 53.1596 120.6282 0001108 98.9149 261.1977 15.30191423111512
Epoch: Sep 14, 2025 • Age: 23 hours

現在のステータス

高度 478.3 km
速度 7.63 km/s
衛星直下点 -10.23°S, 145.22°E
打ち上げ日 Sep 25, 2023
運用期間 1.9 years
タイプ internet

技術仕様

分類 Payload
質量 730.00 kg
乾燥質量 700.00 kg
総質量 730.00 kg
長さ 0.30 m
直径 4.10 m
スパン 29.00 m
形状 Box + pan
製造者 SPXS
バスタイプ Starlink V2M
フェーズステータス In Orbit
所有者/国 SPXS/US

大規模コンステレーション

Loading constellations...